Location: ?
(35.6016°N, 139.5755°E)
Time: 19:58:19
(UTC+00:00)

Daily predictions for brighter satellites

Satellite Brightness Start Highest point End
(mag) Time Altitude Azimuth Time Altitude Azimuth Time Altitude Azimuth
Atlas Centaur 2 4.0 18:22:21 35° ESE 18:22:21 35° ESE 18:27:31 10° E
USA 267 3.8 18:52:24 10° SE 18:57:01 48° SSE 18:57:01 48° SSE
ATLAS 2A CENTAUR R/B 4.4 19:02:07 24° SSE 19:02:07 24° SSE 19:07:53 10° ESE
NOSS 0 Rocket 3.9 19:14:30 78° ESE 19:14:30 78° ESE 19:20:40 10° NNE
Haruka 3.6 19:18:06 58° SSE 19:18:06 58° SSE 19:28:13 10° E
Lacrosse 5 rocket 3.9 19:21:45 13° NE 19:21:45 13° NE 19:23:17 10° ENE
Cosmos 540 Rocket 3.6 19:26:32 69° ESE 19:26:38 70° ESE 19:31:45 10° NNE
CZ-4B R/B 4.4 19:30:10 10° NNE 19:33:29 32° E 19:36:54 10° SSE
CZ-2C R/B 2.1 19:35:19 49° ESE 19:35:19 49° ESE 19:38:27 10° E
SL-4 R/B 3.1 19:40:05 36° NE 19:40:05 36° NE 19:42:32 10° NE
Cosmos 1513 Rocket 4.3 19:35:40 10° S 19:41:59 80° W 19:48:15 10° N
Cosmos 990 Rocket 3.8 19:43:59 75° WSW 19:43:59 75° WSW 19:49:05 10° S
SL-16 R/B 3.9 19:39:46 10° SSE 19:44:43 33° ESE 19:49:43 10° NE
Lacrosse 4 Rocket 2.4 19:43:25 12° S 19:47:06 46° ESE 19:51:13 10° NE
CSL-04 DEB 4.5 19:43:23 10° SSE 19:47:27 77° SSW 19:47:27 77° SSW
Cosmos 1908 4.1 19:46:33 10° SSE 19:50:13 48° E 19:53:53 10° NNE
Cosmos 2278 Rocket 2.5 19:46:37 21° NNW 19:50:25 67° ENE 19:56:02 10° SSE
Cosmos 1891 Rocket 4.4 19:46:03 10° SSW 19:52:11 63° W 19:58:14 10° N
SL-24 R/B 3.9 19:48:54 10° S 19:52:19 67° SSW 19:52:19 67° SSW
Cosmos 1892 Rocket 4.4 19:56:20 35° SSW 19:56:20 35° SSW 19:59:05 10° S
Cosmos 2237 Rocket 2.1 19:53:01 38° SW 19:55:09 64° WNW 20:00:49 10° NNE
Gbstr 26 Del rocket 4.4 19:53:08 39° WSW 19:56:05 67° NW 20:04:10 10° NE
Cosmos 1464 Rocket 3.8 19:50:26 10° SSW 19:56:28 64° W 20:02:34 10° N
Cosmos 2219 Rocket 4.3 20:00:20 11° NNW 20:00:20 11° NNW 20:00:36 10° NNW
Cosmos 1953 3.3 20:02:37 10° SSW 20:08:15 31° NNW 20:10:28 10° N
Cosmos 858 Rocket 4.3 20:03:30 23° NNW 20:06:51 80° WSW 20:12:02 10° SSE
COSMO-SKYMED 1 2.4 20:03:35 10° S 20:07:56 83° W 20:11:15 17° NNW
ADEOS 3.9 20:03:37 10° N 20:08:27 39° WNW 20:08:34 39° WNW
Atlas Centaur 2 3.3 20:04:57 28° WSW 20:09:16 61° S 20:17:37 10° E
Meteor 1-21 Rocket 4.3 20:04:05 10° N 20:09:52 87° E 20:15:44 10° S
Cosmos 841 Rocket 3.6 20:08:13 33° WSW 20:10:00 47° WNW 20:14:58 10° N
Cosmos 1340 3.7 20:08:06 10° N 20:11:44 46° E 20:15:21 10° SSE
GPS 2-04 Rocket1 4.5 20:15:43 19° SW 20:16:04 19° SSW 20:19:02 10° SSE
CZ-4B R/B 2.0 20:12:57 10° S 20:15:33 40° SW 20:15:33 40° SW
SL-8 R/B 3.8 20:15:45 31° NW 20:18:02 71° NE 20:22:50 10° ESE
FALCON 9 R/B 2.9 20:17:05 20° WSW 20:19:02 23° SSW 20:21:36 10° SSE
ATLAS CENTAUR R/B 0.9 20:19:40 27° SW 20:21:31 65° WNW 20:25:10 10° NNE
Cosmos 1544 Rocket 4.0 20:17:55 10° SSW 20:21:55 37° W 20:25:57 10° N
Cosmos 1898 Rocket 4.0 20:21:04 30° WNW 20:22:32 36° W 20:27:13 10° SSW
Cosmos 44 Rocket 3.4 20:19:33 23° NW 20:22:52 70° WSW 20:28:00 10° SSE
Cosmos 1092 Rocket 4.2 20:22:07 10° N 20:28:16 71° E 20:34:25 10° SSE
Cosmos 1980 4.4 20:26:40 23° W 20:28:52 31° WNW 20:33:51 10° N
SJ-7 4.3 20:25:42 10° NNE 20:29:50 89° WNW 20:33:54 10° SSW
NOSS 3-2 (A) 3.2 20:25:13 10° SW 20:30:41 76° WNW 20:36:52 10° NNE
Cosmos 2228 4.2 20:29:15 10° SSE 20:33:17 44° E 20:37:19 10° NNE
Cosmos 2034 Rocket 4.3 20:29:44 10° SSW 20:35:46 44° W 20:41:49 10° N
YAOGAN 6 2.5 20:32:06 10° N 20:35:49 78° W 20:39:28 10° SSW
USA 307 3.2 20:35:04 22° WSW 20:37:24 45° NW 20:41:28 10° NNE
SMAP 4.3 20:32:58 10° NNE 20:37:26 45° E 20:41:53 10° S
Cosmos 1703 3.2 20:34:55 10° NNW 20:38:48 65° W 20:42:39 10° S
H-2A R/B 3.6 20:36:22 10° NNE 20:40:46 51° E 20:45:08 10° S
H-2A R/B 3.1 20:38:14 10° N 20:41:42 38° WNW 20:45:11 10° SW
NOSS 3-2 (C) 3.4 20:36:35 10° SSW 20:42:01 75° ESE 20:48:06 10° NE
Nadezhda 4 Rocket 4.1 20:36:25 10° NNW 20:42:17 50° W 20:48:09 10° SSW
Cosmos 1626 Rocket 3.8 20:40:50 10° NNW 20:45:08 48° W 20:49:24 10° SSW
USA 305 3.5 20:42:57 19° W 20:45:31 37° NW 20:49:28 10° NNE
USA 308 3.4 20:43:33 18° W 20:46:15 38° NW 20:50:13 10° NNE
Cosmos 372 Rocket 4.0 20:41:44 10° NNW 20:46:55 64° WSW 20:52:04 10° S
MOS 1 Rocket 3.7 20:43:50 10° S 20:48:38 43° W 20:53:11 10° NNW
Cosmos 1634 Rocket 3.9 20:43:12 10° S 20:49:20 79° W 20:55:32 10° N
PSLV R/B 4.2 20:46:53 10° S 20:50:49 48° W 20:54:51 10° NNW
Cosmos 1346 Rocket 3.5 20:47:23 10° N 20:51:19 57° E 20:55:13 10° SSE
OAO 2 Rocket 3.5 20:47:38 17° W 20:51:23 61° SSW 20:56:14 10° ESE
ERBS 4.3 20:49:51 10° S 20:52:48 31° SE 20:55:45 10° ENE
Cosmos 1937 Rocket 4.4 20:49:12 13° NW 20:52:57 26° W 20:57:14 10° SSW
FALCON 9 DEB 2.8 20:50:08 10° SW 20:53:15 87° SE 20:56:20 10° NE
OAO 3 Copernicus 4.3 20:49:58 14° W 20:54:20 83° S 20:59:25 10° E
DMSP B5D1-3 4.5 20:49:55 10° S 20:55:00 76° WSW 21:00:07 10° NNW
Cosmos 1689 Rocket 2.6 20:52:44 10° SSW 20:55:25 34° W 20:58:07 10° NNW
CZ-4B DEB 4.2 20:50:20 10° N 20:55:54 80° WNW 21:01:27 10° SSW
Cosmos 1125 Rocket 4.3 20:51:59 10° N 20:57:12 54° ENE 21:02:22 10° SSE
USA 306 3.8 20:54:28 14° W 20:57:34 30° NW 21:01:22 10° NNE
FALCON 9 DEB 2.9 20:54:40 10° SW 20:57:48 83° SE 21:00:56 10° NE
ERS-2 3.2 20:54:58 10° SSW 20:57:59 25° W 21:01:02 10° NW
Envisat 3.2 20:54:30 10° N 20:59:23 48° WNW 21:04:15 10° SSW
Lacrosse 5 rocket 1.0 20:57:24 11° NW 21:01:00 74° SW 21:04:38 10° SSE
Cosmos 1300 2.6 20:57:36 10° SSW 21:01:22 63° W 21:05:09 10° N
CENTAUR R/B 2.3 20:55:48 10° SW 21:01:24 74° WNW 21:08:03 10° NNE
CZ-4B R/B 4.4 21:06:34 10° NW 21:08:18 13° WNW 21:10:03 10° W
Cosmos 1758 Rocket 3.6 21:04:28 10° NNW 21:08:56 70° W 21:13:20 10° S
Cosmos 1400 Rocket 4.3 21:09:20 10° WSW 21:12:07 18° WNW 21:14:57 10° NNW
Cosmos 2058 Rocket 4.0 21:09:19 10° S 21:13:34 54° E 21:17:53 10° NNE
CZ-2C R/B 1.3 21:09:50 10° W 21:14:01 81° S 21:17:57 10° E
NOAA 6 4.3 21:10:50 10° N 21:15:49 48° WNW 21:20:46 10° SW
Cosmos 1939 Rocket 3.7 21:13:14 10° NNE 21:17:03 53° E 21:20:49 10° S
NOAA 12 4.1 21:11:59 10° N 21:17:15 71° WNW 21:22:32 10° SSW
SL-4 R/B 3.6 21:16:05 10° WNW 21:18:43 18° NNW 21:21:30 10° NNE
Cosmos 2026 Rocket 4.2 21:12:37 10° NNW 21:18:51 58° W 21:25:04 10° S
Cosmos 1726 Rocket 3.5 21:16:20 10° SSW 21:20:37 70° W 21:24:55 10° N
BREEZE-M DEB (TANK) 2.3 21:17:30 10° NW 21:23:37 68° SW 21:26:08 10° SE
